Weather History for Plymouth, NH

Change the Weather History Date:

Monday, February 4, 2013

  Actual Average (KLCI) Record (KLCI)
Temperature  
Mean Temperature 20 °F -  
Max Temperature 26 °F 32 °F 57 °F (1991)
Min Temperature 14 °F 7 °F -14 °F (1985)
Degree Days  
Heating Degree Days 45    
Moisture  
Dew Point 3 °F    
Average Humidity 49    
Maximum Humidity 87    
Minimum Humidity 20    
Precipitation  
Precipitation 0.00 in - - ()
Sea Level Pressure  
Sea Level Pressure 29.73 in    
Wind  
Wind Speed 8 mph (West)    
Max Wind Speed 21 mph    
Max Gust Speed 34 mph    
Visibility 10 miles    
Events Snow    
Averages and records for this station are not official NWS values.
T = Trace of Precipitation, MM = Missing Value Source: NWS Daily Summary

Daily Weather History Graph

Daily Weather History Graph

Search for Another Location

Airport:

Trip Planner

Search our weather history database for the weather conditions in past years. The results will help you decide how hot, cold, wet, or windy it might be!

Date:

Astronomy

Feb. 04, 2013 Rise Set
Actual Time 7:00 AM EST 5:02 PM EST
Civil Twilight 6:29 AM EST 5:32 PM EST
Nautical Twilight 5:55 AM EST 6:06 PM EST
Astronomical Twilight 5:22 AM EST 6:40 PM EST
Moon 1:34 AM EST (2/4) 11:20 AM EST (2/4)
Length of Visible Light 11h 02m
Length of Day
10h 02m
Last Quarter, 37% of the Moon is Illuminated
Feb 4
Last Quarter
Feb 10
New
Feb 17
First Quarter
Feb 25
Full
Mar 4
Last Quarter

Hourly Weather History & Observations

Time (EST) Temp. Windchill Dew Point Humidity Pressure Visibility Wind Dir Wind Speed Gust Speed Precip Events Conditions
12:15 AM 20.1 °F - 16.5 °F 86% 29.68 in 10.0 mi Calm Calm - N/A   Unknown
12:35 AM 19.9 °F - 16.5 °F 87% 29.69 in 10.0 mi Calm Calm - N/A   Unknown
12:55 AM 22.3 °F 16.1 °F 15.1 °F 74% 29.69 in 7.0 mi West 4.6 mph - N/A Snow Light Snow
1:15 AM 22.1 °F 13.7 °F 15.8 °F 77% 29.68 in 7.0 mi West 6.9 mph - N/A Snow Light Snow
1:35 AM 21.6 °F 14.0 °F 15.6 °F 78% 29.69 in 10.0 mi West 5.8 mph - N/A Snow Light Snow
1:55 AM 21.2 °F 12.6 °F 15.8 °F 80% 29.69 in 7.0 mi West 6.9 mph - N/A Snow Light Snow
2:15 AM 21.2 °F 14.9 °F 15.8 °F 80% 29.69 in 10.0 mi West 4.6 mph - N/A   Unknown
2:55 AM 21.0 °F 16.2 °F 15.8 °F 80% 29.68 in 7.0 mi West 3.5 mph - N/A Snow Light Snow
3:15 AM 20.8 °F 16.0 °F 16.2 °F 82% 29.67 in 10.0 mi West 3.5 mph - N/A   Unknown
3:35 AM 21.0 °F - 15.6 °F 80% 29.67 in 10.0 mi Calm Calm - N/A   Unknown
3:55 AM 20.7 °F 15.8 °F 15.4 °F 80% 29.67 in 10.0 mi WNW 3.5 mph - N/A   Unknown
4:15 AM 20.1 °F 15.2 °F 14.4 °F 78% 29.66 in 10.0 mi WNW 3.5 mph - N/A   Unknown
6:15 AM 19.2 °F 11.3 °F 13.1 °F 77% 29.69 in 10.0 mi WNW 5.8 mph - N/A   Unknown
6:35 AM 19.8 °F 10.8 °F 12.9 °F 75% 29.69 in 10.0 mi West 6.9 mph - N/A   Unknown
7:15 AM 19.8 °F 10.8 °F 13.1 °F 75% 29.70 in 10.0 mi WNW 6.9 mph - N/A   Unknown
7:35 AM 19.9 °F 11.1 °F 12.7 °F 74% 29.70 in 10.0 mi WNW 6.9 mph - N/A   Unknown
8:15 AM 20.1 °F 8.1 °F 9.7 °F 64% 29.72 in 10.0 mi WNW 11.5 mph 19.6 mph N/A   Unknown
9:15 AM 20.8 °F 8.4 °F 8.4 °F 59% 29.71 in 10.0 mi WNW 12.7 mph 23.0 mph N/A   Unknown
9:35 AM 21.2 °F 9.5 °F 8.4 °F 58% 29.71 in 10.0 mi NW 11.5 mph 20.7 mph N/A   Unknown
9:55 AM 21.9 °F 8.7 °F 8.1 °F 55% 29.71 in 10.0 mi West 15.0 mph 24.2 mph N/A   Unknown
10:15 AM 22.1 °F 10.6 °F 7.0 °F 52% 29.70 in 10.0 mi WNW 11.5 mph 20.7 mph N/A   Unknown
10:35 AM 23.0 °F 9.6 °F 6.3 °F 49% 29.71 in 10.0 mi West 16.1 mph 23.0 mph N/A   Unknown
10:55 AM 22.6 °F 11.3 °F 6.3 °F 50% 29.71 in 10.0 mi WNW 11.5 mph 23.0 mph N/A   Unknown
11:15 AM 22.8 °F 12.9 °F 8.4 °F 54% 29.70 in 10.0 mi West 9.2 mph 16.1 mph N/A   Unknown
11:35 AM 23.0 °F 11.7 °F 7.0 °F 50% 29.69 in 10.0 mi WNW 11.5 mph 19.6 mph N/A   Unknown
12:15 PM 23.9 °F 12.9 °F 4.1 °F 43% 29.67 in 10.0 mi West 11.5 mph 21.9 mph N/A   Unknown
12:35 PM 24.6 °F 14.4 °F 4.6 °F 42% 29.67 in 10.0 mi WNW 10.4 mph 19.6 mph N/A   Unknown
12:55 PM 25.5 °F 13.3 °F 2.8 °F 38% 29.67 in 10.0 mi West 15.0 mph 26.5 mph N/A   Unknown
1:15 PM 25.5 °F 13.8 °F 3.2 °F 38% 29.67 in 10.0 mi West 13.8 mph 23.0 mph N/A   Unknown
1:35 PM 25.7 °F 14.6 °F 2.7 °F 37% 29.66 in 10.0 mi WNW 12.7 mph 21.9 mph N/A   Unknown
1:55 PM 26.6 °F 13.8 °F -0.8 °F 31% 29.67 in 10.0 mi West 17.3 mph 25.3 mph N/A   Unknown
2:15 PM 26.6 °F 14.3 °F -5.4 °F 25% 29.67 in 10.0 mi West 16.1 mph 26.5 mph N/A   Unknown
2:35 PM 26.6 °F 14.7 °F -6.2 °F 24% 29.68 in 10.0 mi West 15.0 mph 25.3 mph N/A   Unknown
2:55 PM 26.4 °F 16.0 °F -9.9 °F 20% 29.68 in 10.0 mi West 11.5 mph 28.8 mph N/A   Unknown
3:15 PM 26.6 °F 15.7 °F -7.8 °F 22% 29.69 in 10.0 mi West 12.7 mph 23.0 mph N/A   Unknown
3:55 PM 25.0 °F 12.6 °F -6.3 °F 25% 29.70 in 10.0 mi West 15.0 mph 24.2 mph N/A   Unknown
4:15 PM 25.2 °F 10.8 °F -5.4 °F 26% 29.69 in 10.0 mi WSW 20.7 mph 29.9 mph N/A   Unknown
4:35 PM 23.9 °F 10.8 °F -6.3 °F 26% 29.70 in 10.0 mi West 16.1 mph 33.4 mph N/A   Unknown
4:55 PM 23.7 °F 12.1 °F -4.7 °F 29% 29.71 in 10.0 mi West 12.7 mph 26.5 mph N/A   Unknown
5:15 PM 23.4 °F 9.6 °F -5.8 °F 28% 29.72 in 10.0 mi West 17.3 mph 34.5 mph N/A   Unknown
5:35 PM 22.8 °F 9.4 °F -4.9 °F 30% 29.73 in 10.0 mi West 16.1 mph 28.8 mph N/A   Unknown
5:55 PM 22.1 °F 9.5 °F -4.0 °F 32% 29.74 in 10.0 mi West 13.8 mph 23.0 mph N/A   Unknown
6:15 PM 21.9 °F 9.2 °F -4.5 °F 31% 29.75 in 10.0 mi West 13.8 mph 25.3 mph N/A   Unknown
6:35 PM 21.4 °F 7.1 °F -4.9 °F 31% 29.76 in 10.0 mi West 17.3 mph 26.5 mph N/A   Unknown
6:55 PM 21.0 °F 7.1 °F -5.3 °F 31% 29.77 in 10.0 mi West 16.1 mph 24.2 mph N/A   Unknown
7:15 PM 20.7 °F 8.2 °F -5.3 °F 32% 29.77 in 10.0 mi West 12.7 mph 25.3 mph N/A   Unknown
7:55 PM 19.8 °F 4.1 °F -4.2 °F 35% 29.79 in 10.0 mi West 19.6 mph 27.6 mph N/A   Unknown
8:15 PM 19.4 °F 3.6 °F -4.2 °F 35% 29.79 in 10.0 mi West 19.6 mph 25.3 mph N/A   Unknown
8:35 PM 19.2 °F 5.8 °F -4.0 °F 36% 29.80 in 10.0 mi West 13.8 mph 23.0 mph N/A   Unknown
8:55 PM 18.1 °F 6.3 °F -3.3 °F 39% 29.82 in 10.0 mi WNW 10.4 mph - N/A   Unknown
9:15 PM 17.6 °F 5.0 °F -6.0 °F 35% 29.82 in 10.0 mi West 11.5 mph 17.3 mph N/A   Unknown
9:35 PM 17.2 °F 6.0 °F -6.3 °F 35% 29.82 in 10.0 mi West 9.2 mph 16.1 mph N/A   Unknown
9:55 PM 16.7 °F 8.3 °F -5.6 °F 37% 29.83 in 10.0 mi West 5.8 mph - N/A   Unknown
10:15 PM 16.2 °F 7.6 °F -5.6 °F 38% 29.83 in 10.0 mi West 5.8 mph - N/A   Unknown
10:35 PM 15.8 °F 8.6 °F -5.6 °F 38% 29.84 in 10.0 mi WNW 4.6 mph - N/A   Unknown
10:55 PM 14.9 °F 9.2 °F -4.5 °F 42% 29.84 in 10.0 mi West 3.5 mph - N/A   Unknown
11:15 PM 14.9 °F 9.2 °F -4.5 °F 42% 29.85 in 10.0 mi West 3.5 mph - N/A   Unknown
11:35 PM 14.4 °F 8.6 °F -4.5 °F 43% 29.85 in 10.0 mi WNW 3.5 mph - N/A   Unknown
11:55 PM 14.0 °F 6.5 °F -4.7 °F 43% 29.86 in 10.0 mi WNW 4.6 mph - N/A   Unknown